GPS BIIF-9 (40534 NORAD) Tracking and Keplerian Element Data

This shows tracking and keplerian element data for the satellite.

Feedback or suggestion? Click here.




ElementValue
Catalog40534
NameGPS BIIF-9
Epoch Orbit2432
Epoch Day201.79165206
Epoch Year2018
RAAN323.4825
Inclination54.7317
Eccentricity0.0027788
Argument of Perigee1.513
Mean Anonmoly358.5029
Mean Motion2.00561684
Decay Rate-9.8E-07
L11 40534U 15013A 18201.79165206 -.00000098 00000-0 00000+0 0 9991
L22 40534 54.7317 323.4825 0027788 1.5130 358.5029 2.00561684 24329

Live tracking and technical data element details for GPS BIIF-9 (NORAD 40534). GPS BIIF-9 can be tracked NOW for your location showing map with azimuth and elevation plus other details from your city location.

Track the satellite on the map from your city or location and see movement details for azimuth, elevation, latitude, longitude, range, height, and movement on the map or in text.







IsCatalogInMostPopularTable: catalog: 40534, numindb: 66
Update: records affected: 1



GetName: 40534 GPS BIIF-9

Hit Count: updated at: Mon, 23 Jul 2018 08:03:51 GMT